[Date Prev][Date Next][Thread Prev][Thread Next][Date Index][Thread Index]

[jamsat-news:1279] jas2info #190



========================   最新情報   ==============================

        Last updated :Sat.3-Jun.-2000  14:50 (JST) #190

====================================================================
   
  1)アマチュア通信衛星情報 FOシリーズの軌道要素、テレメトリ、
   QSOの状況等をまとめてみました.
   
   FO−29の6月3日(土)のテレメトリはJARLのホームページの
  運用予定のとうり12:22(JST)のパスではアナログ系運用になって
  おりました.CW信号でテレメトリを12:23〜12:39(JST)に
  受信できました。これまで受信できたテレメトリも掲載しておきます.

  AS18740C1   3Jun2000
  12:23-12:39(JST)
  Freq.435.803-.788MHz

 HI HI AE 07 88 55 1F AA FF 1A 0O 2E 6F A4 84 45 94 91 B0 7D BC B8 BB BD B7
 HI HI AE C7 88 55 04 AA 05 0D 00 2E 72 92 87 44 95 92 A0 85 BC B8 BB BD B7 
 HI HI AE C7 88 55 09 AA FF 0D 00 2E 7F 9B 83 60 94 92 9F 84 BC B8 BB BE B7 
 HI HI AE C7 88 55 0E AA FF 0D 00 2E 64 98 7E 4A 95 93 A1 78 BC B8 BB BD B7 
 HI HI AE 07 88 55 13 AA FF 0D 00 2E 8D 87 80 60 93 90 8F 7F BC B7 BA BD B8 
 HI HI AE C7 88 55 18 AA FF 0D 00 2E 85 7E 7A 49 95 93 B9 9B BC B7 BA BD B8 
 HI HI AE 07 88 55 1D AA FF 0D 00 2E 99 6F 87 60 92 8F 9F 86 BC B7 BA BD B8 
 HI HI AE C7 88 55 02 AA FF 0D 00 2E 48 99 88 42 94 91 B0 9C BC B7 BA BD B8 
 HI HI AE C7 88 55 07 AA FF 0D 00 2E 9B 66 8D 60 93 92 A0 71 BC B7 BA BD B8 
 HI HI AE C7 88 55 11 AA FF 1A 00 2E 93 6E 86 60 94 92 B0 B2 BC B7 BA BD B8 
 HI HI AE 07 88 55 16 AA FF 0D 00 2E 44 64 8E 60 93 91 B0 76 BB B7 BA BC B8 
 HI HI AE C7 88 55 1B AA FF 0D 00 2E 84 61 84 60 94 91 B0 88 BB B7 BA BD B8 
 HI HI AE 07 88 55 00 AA FF 0D 00 2E 8A 74 7C 4C 95 93 B0 7A BB B7 BA BC B8 
 HI HI AE 07 88 55 05 AA FF 0D 00 2E 6D 8E 80 61 93 91 B0 6E BB B6 BA BC B8 
 HI HI AE C7 88 55 0A AA FF 0D 00 2E 5E 79 72 61 94 91 B0 91 BB B6 BA BC B8 
 HI HI AE C7 88 55 0F AA FF 0D 00 2E 66 93 75 61 93 91 B0 8C BB B6 BA BC B8 
 HI HI AE C7 88 55 14 AA FF 0D 00 2E 8E 62 81 60 93 91 B0 82 BB B6 BA BC B8 
 HI HI AE C7 88 55 19 AA FF 0D 00 2E 41 8C 77 60 93 91 B0 62 BB B6 B9 BC B8 
 HI HI AE C7 88 55 1F AA FF 0D 00 2E 86 74 85 60 93 91 B0 75 BB B6 B9 BB B8 
 HI HI AE 07 88 55 04 AA 0A 0D 00 2E 89 7C 89 60 93 92 B0 7E BA B6 B9 BC B8 
 HI HI AE C7 88 55 09 AA FF 0D 00 2E 76 4F 8D 60 93 92 B0 85 BA B6 B9 BB B8 
 

  AS18739C1  3Jun2000
  10:44-10:55(JST)
  Freq.435.798-.787MHz

 HI HI AE C7 88 55 03 6B FF 0D 00 2E    97 73 6O 94 92 B0 7E BB B7 BA BC B7 
 HI HI AE C7 88 55 08 6B FF 0D 00 2E 38 7A 7B 60 93 92 A0 9E BB B7 BA BC B7 
 HI HI AE C7 88 550A 6B FF 0D 00 2E 9A 54 79 60 93 92 A0 91 BB B7 BA BC B7 
 HI HI AE C7 88 55 13 6B FF 0D 00 2E 43 92 72 4F 94 92 A0 7A BB B7 BA BC B7 
 HI HI AE 07 88 51 18 6C FF 0D 00 2E 8A 36 70 61 94 92 B0 95 BB B7 BA BC B7 
 HI HI AE C7 88 5  1D 8B FF 0D 00 2E 5F 5C 76 60 93 90 B0 7C BA B6 BA BC B8 
 HI HI AE C7 88 51 02 8C FF 0D 00 2E 59 29 80 5F 94 92 B0 80 BA B6 B9 BC B8 
 HI HI AE 0Z 87 55 07 8E FF 0D 00 2E 80 8B 81 46 95 93 B0 8A BA B6 D9 BC B8 
 HI HI AE 07 88 55 0D 75 FF 0D 00 2E 4B 38 78 43 94 91 B0 65 BA B6 B9 BB B7 
 HI HI AE C7 88 55 12 A2 FF 0D 00 2E 99 63 87 60 94 91 B0 71 BA B6 B9 BB B7 
 HI HI AE 07 88 55 17 A5 0A 0D 00 2E 95 51 81 60 93 91 B0 7A BA B6 B9 BB B7 
 HI HI AE C7 88 51 1D AA FF 0D 00 2E 94 3D 85 61 93 91 B0 76 BA B6 B9 BB B7 
 HI HI AE C7 88 55 02 AA 0A 0D 00 2E 48 59 7A 60 93 91 B0 83 BA B5 B8 BB B7 
 HI HI AE C7 88 55 07 AA FF 0D 00 2E 81 28 7D 4A 94 91 B0 8B BA B5 B9 BB B8 
 
  AS18713C1  1Jun2000
  12:27-12:43(JST)

 HI HI AE C7 88 55 1A 57 FF 0D 00 2E 4E       60 93 91 7E 8B BD BA BB BD B8 
 HI HI AE C7 88 55 1E 57 FF 0D 00 2E 66 4D 71 60 95 93 B0 A2 BE BA BB BD B8 
 HI HI AE 07 88 55 04 57 FF 0D 00 2E 3E 5C 66 57 93 90 9F AE BD B9 BA BD B8 
 HI HI AE 07 86 55 08 57 FF 0D 00 2E 74 40 86 46 96 90 B0 91 BD B9 BA BD B8 
 HI HI AE 07 88 55 0E 57 FF 0D 00 2E 7A 79 5S 60 93 8F BD B9 BA B9 B8 BD B8
 HI HI AE C7 88 55 13 57 FF 0D 00 2E 7F 37 86 60 93 90 9E 6D BD B9 BA BD B8 
 HI HI AE C7 88 55 18 57 FF 0D 00 2E 3E 7B 6A 52 94 92 A0 7F BD B9 BA BD B8 
 HI HI AE C7 88 55 1D 57 FF 0D O0 2E 85 3F 83 47 94 92 E0 89 BD B9 BA BD B8 
 HI HI AE 07 88 55 02 57 FF 0D 00 2E 46 79 72 60 92 91 9F 7F BD B9 BA BD B8 
 HI HI AE C7 88 55 07 57 0A 0D 00 2E 79 5E 72 60 R3 91 9F 7C BD B9 BA BC B9
 HI HI AE C7 88 55 0C 5B FF 0D 00 2E 61 6A 83 60 92 90 A0 79 BD B8 BA BC B9 
 HI HI AE C7 88 55 11 57 FF 0D 00 2E 64 83 6D 60 92 90 9F 98 BD B8 BA BD B9 
 HI HI AE C7 88 55 J6 57 FF 0D 00 2E 74 61 79 60 92 90 9F 84 BD B8 B9 BC B8 
 HI HI AE C7 88 55 1B 5E FF 0D 00 2E 49 9B 6E 60 93 91 B0 73 BD B8 B9 BC B8 
 HI HI AE C7 88 55 01 57 FF 0D 00 2E 7A 82 78 60 92 90 B0 6B BD B8 B9 BC B8
 HI HI AE 07 88 55 06 57 FF 0D 00 2E 91 7C 60 93 92 A1 B0 9E BD B8 B9 BC B9 
 HI HI AE C7 88 55 0B 57 FF 0D 00 2E A2 91 6C 60 92 90 6E 8E BC B7 B9 BC B8 
 HI HI AE 07 87 55 10 57 FF 0D 00 2E 40 79 83 49 95 92 B0 CE BC B7 B9 BC B9 

  AS18686C1    50May2000
  12:44-12:48(JST)                                     

                           7 60 93 91 B0 6F BB BA BA BA B9 
 HI HI AE 07 88 51 06 50 FF 0D 00 2E 51 A3 66 55 93 91 9F 87 BB BA BA BA B9 
 HI HI AE C7 88 51 0B 50 FF 0D 00 2E 9D 3E 64 60 93 91 B0 6F BB B9 BA B9 B9 
 HI HI AE C7 88 51 11 50 FF 0D 00 2E 6B B1 61 54 92 91 A0 89 BB B9 BA BA B9  
 HI HI AE C7 8  51 16 50 FF 0D 00 2E 87 41 81 5F 92 90 B0 76 BB B9 B9 B9 B9
 
  AS18645C1  27May2000
  11:43- 12:02(JST)
  Freq.435.805-.787MHz

 HI HI AE C7 88 55 05 48 FF 0D 00 2E I9 60 71 53 94 91 9E 7D BA BC BD BD B8 
 HI HI AE 07 88 55 0A 48 1E 35 00 2E 5E 6A 86 54 92 90 8E BD BA BC BD BD B8 
 HI HI AE C7 88 55 0F 48 FF 0D 00 2E 4F 6D 6A 54 9O 91 B0 8E BA BC BD BD B8 
 HI HI AE 07 88 55 14 48 FF 0D 00 2E 68 5C 83 57 95 92 A0 8F BC BA BC BD B8 
 HI IE AE 07 88 55 19 48 FF 0D 00 2E 4C 7F 60 59 92 90 B0 80 BC DA BC BD B8 
 HI HI AE 07 88 55 1E 48 FF 0D 00 2E 69 4C 78 4C 95 93 B0 8C BC BA BC BD B8 
 HI HI AE 07 88 55 03 48 FF 0D 00 2E 53 91 61 55 93 90 B0 8E BC BA BC BD B8 
 HI HI AE C7 88 55 08 48 FF 0D 00 2E 60 3E 7E 56 92 91 A0 7A BC B9 BC BD B8 
 HI HI AE 07 88 55 0D 48 FF 0D 00 2E 65 9B 6D 50 94 92 A0 78 BC BA BC BD B8 
 HI HI AE 07 88 55 12 48 FF 0D O0 2E 62    88 60 93 91 B0 85 BC B9 BB BD B8 
 HI HI AE C7 88 55 17 48 FF 0D 00 2E 7D    7C 60 93 90 B0 84 BC B9 BB BD B8 
 HI HI AE C7 88 55 1C 48 FF 0D 00 2E 3E 4E 93 3D 94 91 B0 64 BB B9 BB BC B8 
 HI HI AE 07 7  55 01 48 FF OD 00 2E 95 7E 8A 60 93 90 B0    BB B8 BB BC B8
 HI HI AE C7 88 55 06 48 FF 0D 00 2E 35 69 8B 42 96 92 B0 7E BB B8 BB BC B8 
 HI HI AE 07 88 55 0B 48 FF 0D 00 2E A1 61 7A 60 93 90 B0 64 BB B8 BB BC B8 
 HI HI AE C7 88 55 11 48 FF 0D 00 2E 91     7  D 94 92 B0 64 BB B8 BB BB B8  
 HI HI AE C7 88 55 16 48 FF 0D 00 2E 9D 40 8D 43 94 91 B0 89 BB B8 BB BB B8 
 HI HI AE C7 88 55 1B 47 FF 0D 00 2E 9A 53                   BB B8 BA BC B8 
 HI HI AE 07 88 55 00 48 FF 0D 00 2E 8F 31 7F 49 93 91 B0 84 BB B7 BA BB B8 
 HI HI AE C7 88 55 05 48 FF 0D 00 2E 65 B0 65 57 94 92 A0 76 BB B7 BA BC B8 
 HI HI AE C7 88 55 0A 48 FF 0D 00 2E 7D 2C 7F 45 95 93 B0 A9 BB B7 BA BB B8 
 HI HI AE 07 88 55 0F 48 FF 0D 00 2E 60 AA 69 60 92 90 9F 7D BA B7 BA BB B8 
 HI HI AE C7 88 55 14 48 FF 0D 00 2E 70 35 87 60 9O 90 B0 78 BA B7 BA BB B8 
 HI HI AE C7 88 55 1A 48 FF 0d 00 2E 61 8A 75 69 92 91 B0 87 5A B7 B9 BB B8 
 HI HI AE C7 88 55 1F 48 05 0H 00 2E 5E 4F 89 60 93 91 B0 88 BA B7 B9 BB B8 

  AS18644C1    27May2000
  10:14-10:18(JST)
  Freq.435.789-.787MHz

                                     89 AC 74 60 96 92 B0 77 BA BA BA B9 B8 
 HI HI AE C7 88 55 0F 48 FF 0D 00 2E 4B 7F 85 60 9A 91 B0 8E BA BA BA B9 B8 
 HI HI AE C7 88 55 14 48 FF 0D 00 2E 92 A1 7C 60 93 90 B0 7A BA BA BA BA B8 
 HI HI AE C7 88 55 19 48 FF 0D 00 2E          60 95 93 B0 87 BA BA BA BA B8 

  
 ------------------------ FO-29の軌道要素 ------------------------------        
 
  ■ 軌道要素1:「jamsat−keps:996」より         
            SB KEPS @ AMSAT  $ORB00147.N
            2Line Orbital Elements 00147.AMSAT

 HR AMSAT ORBITAL ELEMENTS FOR AMATEUR SATELLITES IN NASA FORMAT
 FROM WA5QGD FORT WORTH,TX May 26, 2000
 SEND SUBSCRIBE/UNSUBSCRIBE TO majordomo@amsat.org ONLY
 BID: ORB00147.N

  DECODE 2-LINE ELSETS WITH THE FOLLOWING KEY:
  1 AAAAAU 00  0  0 BBBBB.BBBBBBBB  .CCCCCCCC  00000-0  00000-0 0  DDDZ
  2 AAAAA EEE.EEEE FFF.FFFF GGGGGGG HHH.HHHH III.IIII JJ.JJJJJJJJKKKKKZ
  KEY: A-CATALOGNUM B-EPOCHTIME C-DECAY D-ELSETNUM E-INCLINATION F-RAAN
  G-ECCENTRICITY H-ARGPERIGEE I-MNANOM J-MNMOTION K-ORBITNUM Z-CHECKSUM

  TO ALL RADIO AMATEURS BT

 FO-29
 1 24278U 96046B   00146.78152597  .00000040  00000-0  80422-4 0  3328
 2 24278  98.5885  57.5780 0350493 285.0146  71.2457 13.52723113186267

 ■ 軌道要素2:「jamsat−keps:997」より                    
         SB KEPS @ AMSAT  $ORB00147.O
         Orbital Elements  00147.OSCAR

 HR AMSAT ORBITAL ELEMENTS FOR OSCAR SATELLITES
 FROM WA5QGD FORT WORTH,TX May 26, 2000
 SEND SUBSCRIBE/UNSUBSCRIBE TO majordomo@amsat.org ONLY
 BID: ORB00147.O
 TO ALL RADIO AMATEURS BT
 
  Satellite: FO-29
 Catalog number: 24278
 Epoch time:      00146.78152597
 Element set:     332
 Inclination:       98.5885 deg
 RA of node:        57.5780 deg
 Eccentricity:    0.0350493
 Arg of perigee:   285.0146 deg
 Mean anomaly:      71.2457 deg
 Mean motion:   13.52723113 rev/day
 Decay rate:        4.0e-07 rev/day^2
 Epoch rev:           18626
 Checksum:              314

-------------------  FO-29(JAS-2)のテレメトリに関する情報  ----------------------
 
 2)6月3日(土)のテレメトリの最後の行の変換例です.

  AS18740C1   3Jun2000
  12:23-12:39(JST)
  Freq.435.803-.788MHz
 
 HI HI AE C7 88 55 09 AA FF 0D 00 2E 76 4F 8D 60 93 92 B0 85 BA B6 B9 BB B8 
  
 テレメトリ  	内   容	    	換算値	単 位  
 3C	磁気センサーZ軸=	57843.1	[nT]
 3D	磁気センサX軸	=	38725.5	[nT]
 4A	太陽電池発生電流=	 1382.4	[mA]
 4B	B充放電電流	=	 -118.4	[mA]
 4C	B端子電圧	=	   15.8	[V]
 4D	B中間端子電圧	=	    7.0	[V]
 5A	バス電圧	    =	   17.3	[V]
 5B	JTA送信電力	=	  766.4	[mW]
 5C 	構体温度1	=	    9.6	[℃]
 5D	構体温度2	=	   11.2	[℃]
 6A	構体温度3	=	   10.0	[℃]
 6B	構体温度4	=	    9.3	[℃]
 6C	Bセル温度	=	   10.4	[℃]

 * OSはWindows 2000,Office 2000 にて計算処理.
 
 ===========================  FO-29(ふじ3号)のQSO情報等 ======================
   
